[[{"header":{"parameterUnit":"m.s-1","parameterCategory":1,"la1":30.2991,"la2":30.254,"lo1":-89.0895,"lo2":-89.0444,"dy":0.0017,"dx":0.0017,"nx":28,"ny":28,"refTime":"2026-03-05T03:00:00:Z","depth":0,"parameterNumber":2,"parameterNumberName":"U-component_of_WINDS"},"data":[0,0,0,0,0,0,0,0,0,0,0,0,0,0,0,0,0,0,0,0,0,0,0,0,0,0,0,0,0,0,0,0,0,0,0,0,0,0,0,0,0,0,0,0,0,0,0,0,0,0,0,0,0,0,0,0,0,0,-3.7805,-3.7806,0,-3.785,-3.7851,-3.7851,-3.7788,-3.7786,-3.7784,-3.7782,-3.7829,-3.7832,-3.7835,0,0,0,0,0,0,0,0,0,0,0,0,0,-3.7667,-3.767,-3.7805,-3.7806,-3.7806,-3.785,-3.7851,-3.7851,-3.7789,-3.7786,-3.7783,-3.7781,-3.7827,-3.7831,-3.7835,0,0,0,0,0,0,0,0,0,0,0,0,0,-3.7721,-3.7671,-3.7805,-3.778,-3.7779,-3.785,-3.7851,-3.7852,-3.7789,-3.7786,-3.7783,-3.778,-3.7826,-3.7831,-3.7836,-3.7934,0,0,-3.7851,-3.7853,0,0,0,0,0,0,0,0,-3.7718,-3.7726,-3.7784,-3.7782,-3.778,-3.781,-3.7819,-3.7879,-3.779,-3.7785,-3.7782,-3.7778,-3.7825,-3.783,-3.7846,-3.7936,-3.7938,-3.7852,-3.7855,-3.7857,-3.7858,0,0,0,0,0,0,0,-3.7714,-3.7724,-3.7823,-3.7784,-3.7783,-3.7768,-3.7772,-3.783,-3.7824,-3.7786,-3.7781,-3.7787,-3.7824,-3.7841,-3.7847,-3.7939,-3.7851,-3.7856,-3.7859,-3.7861,-3.8112,-3.8116,0,0,0,0,0,0,-3.7713,-3.7721,-3.7822,-3.7824,-3.774,-3.7773,-3.7777,-3.7804,-3.7823,-3.7822,-3.779,-3.7784,-3.7834,-3.7841,-3.7848,-3.7963,-3.7857,-3.7861,-3.7864,-3.8108,-3.8113,-3.8117,0,0,0,0,0,0,-3.7711,-3.7723,-3.782,-3.7772,-3.7783,-3.7779,-3.7809,-3.7807,-3.7824,-3.7826,-3.7825,-3.7809,-3.7832,-3.7841,-3.7913,-3.7964,-3.7864,-3.7868,-3.8104,-3.811,-3.8115,-3.8196,0,0,0,0,0,0,-3.7707,-3.7722,-3.7759,-3.7773,-3.7786,-3.7884,-3.7813,-3.781,-3.7833,-3.7825,-3.7844,-3.7843,-3.783,-3.7906,-3.7918,-3.7969,-3.7872,-3.8099,-3.8107,-3.8113,-3.8188,-3.8203,-3.8216,0,0,0,0,0,-3.7702,-3.778,-3.7761,-3.7774,-3.7831,-3.7887,-3.7894,-3.7877,-3.7837,-3.7874,-3.7876,-3.7843,-3.7957,-3.7914,-3.7927,-3.798,-3.8096,-3.8105,-3.8113,-3.8182,-3.82,-3.8216,0,0,0,0,0,0,-3.7772,-3.7781,-3.776,-3.7845,-3.7866,-3.7876,-3.7922,-3.7897,-3.7929,-3.7921,-3.7899,-3.7904,-3.7981,-3.7988,-3.7939,-3.8077,-3.802,-3.8031,-3.8069,-3.8086,-3.8099,-3.8095,-3.7876,0,0,0,0,0,-3.7797,-3.7841,-3.7847,-3.7921,-3.7933,-3.7926,-3.7949,-3.7935,-3.7955,-3.7964,-3.797,-3.7992,-3.8033,-3.806,-3.8098,-3.819,-3.8193,-3.8233,-3.8247,-3.8259,-3.8268,-3.8318,-3.8336,-3.8144,-3.8144,-3.8144,0,0,-3.7849,-3.786,-3.7889,-3.7935,-3.795,-3.7996,-3.7934,-3.7985,-3.8019,-3.7972,-3.8039,-3.8046,-3.8069,-3.8151,-3.8188,-3.816,-3.8322,-3.8269,-3.8278,-3.8282,-3.8328,-3.8346,-3.8362,-3.815,-3.8149,-3.8148,0,0,-3.7968,-3.7981,-3.8044,-3.806,-3.8082,-3.8078,-3.8093,-3.8108,-3.811,-3.8179,-3.8144,-3.8185,-3.8256,-3.8273,-3.8291,-3.8419,-3.839,-3.8433,-3.8504,-3.8553,-3.8568,-3.8581,-3.8626,-3.8643,-3.8442,-3.8443,-3.8443,0,-3.803,-3.8098,-3.8079,-3.8134,-3.8155,-3.8115,-3.8179,-3.8195,-3.8229,-3.8245,-3.8214,-3.8302,-3.8314,-3.8401,-3.8432,-3.8449,-3.8466,-3.8429,-3.8567,-3.858,-3.8592,-3.8635,-3.8652,-3.8448,-3.8447,-3.8446,-3.8446,0,-3.8173,-3.8221,-3.8269,-3.8303,-3.8331,-3.839,-3.838,-3.8411,-3.8395,-3.8394,-3.8464,-3.8478,-3.8518,-3.8538,-3.8522,-3.8623,-3.8604,-3.8571,-3.8513,-3.8616,-3.8656,-3.8672,-3.8455,-3.8453,-3.8451,-3.845,0,0,-3.8334,-3.8358,-3.8376,-3.8391,-3.8415,-3.8452,-3.851,-3.8549,-3.8575,-3.8601,-3.8648,-3.871,-3.8679,-3.87,-3.8687,-3.873,-3.883,-3.8691,-3.8691,-3.8715,-3.8941,-3.8965,-3.8985,-3.8812,-3.8815,-3.8817,-3.8939,0,-3.8452,-3.8551,-3.8537,-3.8633,-3.8677,-3.8641,-3.8691,-3.8711,-3.8713,-3.8751,-3.8753,-3.8796,-3.8753,-3.8765,-3.8806,-3.8809,-3.8875,-3.88,-3.8856,-3.8858,-3.8849,-3.9005,-3.9031,-3.9145,-3.8954,-3.8957,-3.8959,0,-3.8601,-3.8633,-3.8733,-3.875,-3.8768,-3.8814,-3.8849,-3.8886,-3.8909,-3.8907,-3.8932,-3.8911,-3.8969,-3.8913,-3.8993,-3.8943,-3.8965,-3.8971,-3.8975,-3.8977,-3.8913,-3.9012,-3.9181,-3.9197,-3.8983,-3.8982,-3.898,0,-3.8708,-3.8775,-3.8844,-3.8858,-3.888,-3.8913,-3.8924,-3.8943,-3.8968,-3.9,-3.9016,-3.9054,-3.9074,-3.9105,-3.9095,-3.9055,-3.9178,-3.912,-3.9178,-3.9178,-3.9203,-3.9202,-3.9377,-3.9221,-3.9221,-3.922,-3.922,0,-3.884,-3.8902,-3.8892,-3.8934,-3.9003,-3.8988,-3.9057,-3.9063,-3.9082,-3.9125,-3.9096,-3.9137,-3.9123,-3.9164,-3.9157,-3.9225,-3.9235,-3.9235,-3.9232,-3.9236,-3.9236,-3.9249,-3.924,-3.9225,-3.9224,-3.9223,-3.9222,0,-3.8969,-3.8965,-3.9037,-3.9053,-3.9058,-3.9109,-3.9122,-3.9162,-3.9162,-3.9217,-3.9229,-3.923,-3.9276,-3.927,-3.9322,-3.9318,-3.9402,-3.939,-3.9394,-3.9391,-3.9448,-3.9442,-3.9637,-3.9661,-3.949,-3.9492,-3.9494,0,-3.9052,-3.9099,-3.9121,-3.9147,-3.9161,-3.9204,-3.923,-3.9217,-3.9245,-3.9275,-3.9312,-3.9356,-3.939,-3.9467,-3.9472,-3.9512,-3.95,-3.9566,-3.9506,-3.9509,-3.95,-3.9496,-3.9501,-3.9577,-3.9579,-3.958,-3.9582,0,-3.92,-3.9196,-3.9234,-3.9272,-3.9303,-3.9332,-3.9358,-3.9382,-3.9372,-3.9405,-3.9453,-3.9479,-3.9533,-3.9577,-3.9615,-3.9627,-3.9603,-3.9601,-3.9616,-3.962,-3.962,-3.962,-3.9424,-3.9596,-3.9594,-3.9593,-3.9593,-3.9592,-3.9308,-3.9348,-3.937,-3.9413,-3.9432,-3.9458,-3.9496,-3.9502,-3.9541,-3.9583,-3.9574,-3.9628,-3.9651,-3.9699,-3.9715,-3.9757,-3.9733,-3.9755,-3.9761,-3.9766,-3.9772,-3.9615,-3.9764,-3.9764,-3.9764,-3.9763,-3.9763,0,-3.9453,-3.9466,-3.9506,-3.9544,-3.9579,-3.9554,-3.9583,-3.9613,-3.966,-3.9684,-3.9719,-3.9774,-3.9817,-3.9827,-3.9868,-3.99,-3.989,-3.9911,-3.9908,-3.9911,-3.9792,-3.9774,-3.9919,-3.9919,-3.9919,-3.9919,-3.9919,-3.9918,-3.9533,-3.96,-3.9599,-3.9676,-3.9688,-3.9741,-3.9759,-3.9783,-3.9801,-3.9864,-3.99,-3.9906,-3.9924,-3.9967,-4.0006,-4.0008,-4.0024,-4.0049,-4.0047,-3.9935,-3.9919,-3.9904,-3.9887,-4.0053,-4.0054,-4.0162,-4.0163,-4.0164]},{"header":{"parameterUnit":"m.s-1","parameterCategory":1,"la1":30.2991,"la2":30.254,"lo1":-89.0895,"lo2":-89.0444,"dy":0.0017,"dx":0.0017,"nx":28,"ny":28,"refTime":"2026-03-05T03:00:00:Z","depth":0,"parameterNumber":3,"parameterNumberName":"V-component_of_WINDS"},"data":[0,0,0,0,0,0,0,0,0,0,0,0,0,0,0,0,0,0,0,0,0,0,0,0,0,0,0,0,0,0,0,0,0,0,0,0,0,0,0,0,0,0,0,0,0,0,0,0,0,0,0,0,0,0,0,0,0,0,1.1383,1.1383,0,1.1452,1.1452,1.1453,1.1496,1.1496,1.1497,1.1497,1.1564,1.1566,1.1567,0,0,0,0,0,0,0,0,0,0,0,0,0,1.1287,1.1288,1.1382,1.1383,1.1384,1.1452,1.1452,1.1453,1.1496,1.1496,1.1497,1.1497,1.1564,1.1566,1.1567,0,0,0,0,0,0,0,0,0,0,0,0,0,1.1339,1.1289,1.1382,1.1414,1.1417,1.1451,1.1453,1.1454,1.1496,1.1496,1.1497,1.1497,1.1563,1.1565,1.1568,1.1575,0,0,1.1575,1.1576,0,0,0,0,0,0,0,0,1.1336,1.1342,1.1408,1.1412,1.1416,1.1466,1.1443,1.1494,1.1496,1.1466,1.1497,1.1497,1.1531,1.1536,1.1548,1.1578,1.1581,1.1575,1.1576,1.1577,1.1578,0,0,0,0,0,0,0,1.1332,1.134,1.141,1.1409,1.1414,1.1424,1.1432,1.1453,1.1495,1.1469,1.1472,1.148,1.1533,1.1546,1.155,1.1582,1.1575,1.1577,1.1578,1.1579,1.1624,1.1624,0,0,0,0,0,0,1.1324,1.1336,1.1408,1.1412,1.1376,1.1426,1.1434,1.1449,1.1495,1.1503,1.1479,1.1482,1.1541,1.1547,1.1552,1.1566,1.1577,1.158,1.1581,1.1624,1.1624,1.1624,0,0,0,0,0,0,1.1322,1.133,1.1405,1.1375,1.1386,1.1427,1.1443,1.145,1.1463,1.1504,1.1511,1.1485,1.1542,1.1549,1.157,1.1569,1.1581,1.1583,1.1625,1.1624,1.1624,1.1591,0,0,0,0,0,0,1.1319,1.1329,1.1332,1.1375,1.1387,1.1421,1.1443,1.1451,1.1467,1.1471,1.151,1.1517,1.1543,1.1566,1.1572,1.1572,1.1585,1.1625,1.1625,1.1624,1.1592,1.159,1.1587,0,0,0,0,0,1.1315,1.1318,1.1332,1.134,1.1392,1.1421,1.1428,1.1458,1.1467,1.1471,1.1497,1.1516,1.1568,1.1568,1.1575,1.1575,1.1625,1.1625,1.1624,1.1594,1.159,1.1587,0,0,0,0,0,0,1.1272,1.1324,1.134,1.1357,1.1385,1.1428,1.1433,1.1453,1.1477,1.1479,1.1515,1.1524,1.1541,1.156,1.156,1.1586,1.1599,1.16,1.1573,1.157,1.1568,1.1562,1.1587,0,0,0,0,0,1.1265,1.1285,1.1329,1.134,1.1354,1.1391,1.1405,1.1427,1.1456,1.1467,1.1495,1.1522,1.1545,1.1558,1.1581,1.1596,1.1606,1.16,1.1597,1.1595,1.1595,1.1606,1.1605,1.1622,1.1622,1.1622,0,0,1.125,1.1281,1.1291,1.1333,1.1356,1.1377,1.14,1.142,1.1435,1.1469,1.1492,1.1513,1.1546,1.1564,1.1573,1.1581,1.1593,1.1594,1.1592,1.1594,1.1606,1.1604,1.1603,1.1622,1.1622,1.1622,0,0,1.1232,1.1257,1.1271,1.1295,1.1331,1.1357,1.136,1.1402,1.1418,1.1441,1.1468,1.1487,1.1524,1.1547,1.1564,1.1559,1.1578,1.1565,1.1552,1.1562,1.1561,1.156,1.1559,1.1559,1.1566,1.1565,1.1565,0,1.1208,1.124,1.1275,1.1294,1.1312,1.1346,1.1361,1.1382,1.1423,1.1435,1.1443,1.1493,1.1517,1.1543,1.1542,1.1554,1.1559,1.1561,1.1558,1.1558,1.1557,1.1557,1.1557,1.1564,1.1564,1.1564,1.1564,0,1.121,1.1232,1.1238,1.128,1.1299,1.1315,1.1352,1.1367,1.1388,1.1412,1.1437,1.1467,1.1498,1.1506,1.1525,1.1535,1.1538,1.1552,1.1565,1.1553,1.1554,1.1554,1.1561,1.1562,1.1563,1.1563,0,0,1.1165,1.1228,1.123,1.125,1.1295,1.1312,1.1331,1.1363,1.1376,1.1404,1.1421,1.1454,1.1468,1.1486,1.1509,1.1518,1.1514,1.1531,1.1532,1.1527,1.1529,1.1519,1.1518,1.1527,1.1528,1.1528,1.1526,0,1.1155,1.1191,1.1224,1.1248,1.127,1.1304,1.1321,1.135,1.1374,1.1396,1.1422,1.1446,1.1462,1.1474,1.1484,1.1512,1.1515,1.1513,1.1543,1.1544,1.1535,1.1518,1.1507,1.1504,1.1527,1.1527,1.1527,0,1.1147,1.1176,1.1203,1.1248,1.1258,1.1273,1.1306,1.1327,1.1361,1.1378,1.1401,1.1425,1.1447,1.1459,1.149,1.1488,1.1502,1.1518,1.1519,1.1523,1.1535,1.1522,1.1504,1.1503,1.1527,1.1527,1.1527,0,1.1113,1.1159,1.1182,1.1198,1.1251,1.126,1.1283,1.1318,1.1336,1.1365,1.1377,1.1408,1.1425,1.1448,1.148,1.1485,1.1508,1.1522,1.1523,1.1523,1.1526,1.1525,1.151,1.1535,1.1535,1.1535,1.1535,0,1.1098,1.1113,1.1168,1.1182,1.12,1.1239,1.1256,1.1281,1.1313,1.1332,1.1364,1.1381,1.1423,1.1446,1.1471,1.1494,1.1501,1.1515,1.1522,1.1513,1.1511,1.1523,1.1524,1.1535,1.1535,1.1535,1.1535,0,1.1063,1.11,1.1127,1.1176,1.1189,1.1201,1.1243,1.1258,1.1285,1.131,1.1318,1.136,1.1389,1.1424,1.1463,1.148,1.1501,1.1511,1.149,1.1494,1.1494,1.1493,1.1486,1.1487,1.151,1.151,1.1509,0,1.1051,1.1064,1.1116,1.1132,1.1154,1.1179,1.1199,1.1238,1.1257,1.1299,1.1309,1.1341,1.1368,1.1413,1.1447,1.1478,1.1488,1.1484,1.1493,1.1484,1.149,1.1489,1.1491,1.1481,1.148,1.148,1.148,0,1.1026,1.1045,1.1073,1.1108,1.1131,1.116,1.119,1.1201,1.1246,1.1266,1.1297,1.1319,1.1361,1.1392,1.1428,1.1451,1.1473,1.1477,1.1479,1.147,1.1458,1.1466,1.1484,1.1477,1.1477,1.1477,1.1477,1.1478,1.1003,1.1018,1.1057,1.1088,1.1115,1.1143,1.1161,1.1192,1.1219,1.1257,1.1278,1.1309,1.1346,1.1396,1.1419,1.1443,1.1451,1.1454,1.1454,1.1455,1.1452,1.1454,1.145,1.145,1.145,1.145,1.145,0,1.0981,1.1009,1.1037,1.108,1.1104,1.1126,1.1161,1.118,1.1207,1.124,1.1267,1.1304,1.1335,1.1373,1.1407,1.1419,1.1431,1.1427,1.1426,1.1432,1.1443,1.1438,1.1417,1.1417,1.1417,1.1417,1.1417,1.1417,1.0973,1.0999,1.1023,1.1063,1.1091,1.1123,1.1141,1.1168,1.1195,1.1235,1.1262,1.1287,1.1322,1.136,1.139,1.14,1.1411,1.1405,1.1418,1.1428,1.143,1.1433,1.1429,1.1407,1.1407,1.1405,1.1405,1.1405]}]]